Location: Ariel
(45.9570°N, 122.5700°W)
Time: 14:51:57
(UTC-07:00)

Tiros 1 - Pass Details

Date: 26 July 2019
Orbit: 631 x 664 km, 48.4° (Epoch: 24 August)

Event Time Altitude Azimuth Distance (km) Brightness Sun altitude
Rises 14:10:46 0° 275° (W) 2,991 10.7 61.2°
Reaches altitude 10° 14:13:08 10° 279° (W) 2,081 10.0 61.0°
Maximum altitude 14:17:55 65° 1° (N) 733 8.1 60.6°
Drops below altitude 10° 14:22:42 10° 84° (E) 2,082 9.7 60.1°
Sets 14:25:05 0° 87° (E) 2,992 10.4 59.9°
